This demonstration page uses our WeatherBlox Daily Observations layout. Learn more.

Left ArrowRight Arrow

39.92423, -83.80882

Hourly Observations for January 17, 2017

Temp ( °F °C ) Dew Point ( °F °C ) Humidity (%) Winds ( mph kmh ) Pressure ( in mb ) Visibility ( mi km ) Precip ( " mm )
12:56 am 00:56 Cloudy with Light Rain 48 8.9 48 8.9 100 100 SSE 9 15 30.05 1018 5 8.0467 0.03 0.762
1:56 am 01:56 Cloudy with Light Rain 50 10 49 9.4 96 96 SSE 12 19 30.01 1016 10 16.0934 0.03 0.762
2:56 am 02:56 Cloudy 51 10.6 49 9.4 92 92 SSE 10 17 29.98 1015 10 16.0934 0.01 0.254
3:09 am 03:09 Cloudy with Light Rain 52 11 50 10 94 94 SSE 10 17 29.97 1015 10 16.0934 0.001 0.001
3:31 am 03:31 Cloudy with Light Rain 52 11 50 10 94 94 SSE 10 17 29.94 1014 9 14.48406 0.001 0.001
3:56 am 03:56 Cloudy 52 11.1 51 10.6 97 97 S 3 6 29.95 1014 10 16.0934 0.001 0.001
4:06 am 04:06 Cloudy 52 11 52 11 100 100 S 6 9 29.94 1014 10 16.0934 0 0
4:56 am 04:56 Cloudy 55 12.8 53 11.7 93 93 SSW 10 17 29.92 1013 10 16.0934 0 0
5:56 am 05:56 Cloudy with Light Rain 55 12.8 54 12.2 96 96 SSW 13 20 29.89 1012 9 14.48406 0.01 0.254
6:56 am 06:56 Cloudy with Light Rain 56 13.3 54 12.2 93 93 SSW 14 22 29.88 1012 10 16.0934 0.01 0.254
7:17 am 07:17 Cloudy 55 13 54 12 94 94 SSW 16 26 29.88 1012 10 16.0934 0.001 0.001
7:56 am 07:56 Cloudy 56 13.3 54 12.2 93 93 SSW 16 26 29.88 1012 10 16.0934 0.001 0.001
8:56 am 08:56 Cloudy 58 14.4 55 12.8 90 90 SSW 16 26 29.87 1012 10 16.0934 0 0
9:56 am 09:56 Cloudy 58 14.4 55 12.8 90 90 SW 18 30 29.87 1011 10 16.0934 0 0
10:04 am 10:04 Cloudy 59 15 55 13 88 88 SW 17 28 29.85 1011 10 16.0934 0 0
10:56 am 10:56 Mostly Cloudy 57 13.9 53 11.7 87 87 W 13 20 29.89 1012 10 16.0934 0.001 0.001
11:56 am 11:56 Cloudy 56 13.3 51 10.6 84 84 W 16 26 29.88 1012 10 16.0934 0 0
12:56 pm 12:56 Cloudy 55 12.8 50 10 83 83 W 20 31 29.88 1012 10 16.0934 0 0
1:56 pm 13:56 Cloudy 56 13.3 49 9.4 77 77 W 20 31 29.87 1011 10 16.0934 0 0
2:14 pm 14:14 Cloudy 57 14 50 10 77 77 W 22 35 29.85 1011 10 16.0934 0 0
2:56 pm 14:56 Mostly Cloudy 56 13.3 49 9.4 77 77 W 17 28 29.86 1011 10 16.0934 0 0
3:15 pm 15:15 Mostly Cloudy 55 13 48 9 77 77 W 16 26 29.88 1012 10 16.0934 0 0
3:43 pm 15:43 Partly Cloudy 54 12 46 8 77 77 W 21 33 29.88 1012 10 16.0934 0 0
3:56 pm 15:56 Partly Cloudy 54 12.2 46 7.8 75 75 W 24 39 29.88 1012 10 16.0934 0 0
4:44 pm 16:44 Cloudy 52 11 46 8 82 82 W 18 30 29.91 1013 10 16.0934 0 0
4:56 pm 16:56 Cloudy 51 10.6 46 7.8 83 83 W 16 26 29.91 1013 10 16.0934 0 0
5:56 pm 17:56 Cloudy 48 8.9 43 6.1 83 83 W 15 24 29.95 1014 10 16.0934 0 0
6:56 pm 18:56 Cloudy 46 7.8 41 5 83 83 W 16 26 29.97 1015 10 16.0934 0 0
7:56 pm 19:56 Cloudy 45 7.2 41 5 86 86 WSW 16 26 29.99 1016 10 16.0934 0 0
8:22 pm 20:22 Cloudy 45 7 41 5 87 87 W 15 24 30.03 1017 10 16.0934 0 0
8:56 pm 20:56 Cloudy 45 7.2 42 5.6 90 90 WSW 15 24 29.99 1016 10 16.0934 0 0
9:49 pm 21:49 Cloudy 45 7 43 6 93 93 W 15 24 30 1016 10 16.0934 0 0
9:56 pm 21:56 Cloudy 44 6.7 42 5.6 93 93 WSW 14 22 30 1016 10 16.0934 0 0
10:56 pm 22:56 Cloudy 44 6.7 42 5.6 93 93 W 17 28 30.01 1016 8 12.87472 0.001 0.001
11:56 pm 23:56 Cloudy 43 6.1 41 5 93 93 W 14 22 30.01 1016 10 16.0934 0 0

Powered by AerisWeather